Tracking 19248 objects as of 26-Sep-2018
HD Live streaming from Space Station
objects crossing your sky now

FENGYUN 1C DEB

Track FENGYUN 1C DEB now!
10-day predictions


NORAD ID: 31844
Int'l Code: 1999-025CJJ
Perigee: 779.6 km
Apogee: 945.7 km
Inclination: 100.3 °
Period: 102.0 minutes
Semi major axis: 7233 km
RCS: 0.0099 m2 (small)
Launch date: May 10, 1999
Source: People's Republic of China (PRC)
Launch site: Taiyaun Space Center, China (TSC)

Note: This is SATELLITE DEBRIS
aabbcc
Your satellite tracking list
Your tracking list is empty




NASA's NSSDC Master Catalog

Two Line Element Set (TLE):
1 31844U 99025CJJ 18267.54189649 +.00000265 +00000-0 +16832-3 0  9991
2 31844 100.2634 186.2259 0114850 285.6944 073.1577 14.11128117580895
Source of the keplerian elements: AFSPC